Showing default

AEROCUBE 16B, 59291

Orbit data source: Space-Track

AEROCUBE 16B, 59291 is a payload satellite owned by AERO (US) in LEO that was launched on Thu, 21 Mar 2024 UTC via an ELECTRON launch vehicle from the Wallops Island (WLPIS). Payload-class satellites include a variety of spacecraft equipped with specific instruments for various scientific and technological missions. These include communications satellites like Starlink; space stations such as the ISS; scientific satellites like the Hubble; Earth observation satellites from companies like Planet Labs, Umbra, and HawkEye 360; GPS; miniature CubeSats for education and research; and military/defense satellites.

Loading next visibility...
Identifier
59291, 2024-053D
Orbit
LEO
Country
Flag of USUS
Related business
Manufacturer
AERO
Mission
Operational Defense Technology
Bus & Motor
CUBESAT 6U, Unknown motor
Mass
~10 kg wet, ~10 kg dry
Launch date (UTC)
2024-03-21 (2 years ago)
Launch vehicle
ELECTRON
Launch site
Wallops Island (WLPIS)
Object type
Payload
Rocket body
Debris
Shape & HBR
Box + 1 Pan, 2.5 m
Radar Cross Section
0.322 m², Medium (>0.1 m² and < 1m²)

Expand to show TLE details & history
Last TLE update: 2 days ago

TLE from 2 days ago
0 AEROCUBE 16B
1 59291U 24053D   26171.41068494  .00013447  00000-0  29912-3 0  9998
2 59291  49.9919 308.5541 0003103 326.6771  33.3996 15.43903756121688
Epoch: 2026-06-20T09:51Z
TLE epoch observation values (Epoch: 2026-06-20T09:51:23.178Z)
Latitude
-0.00009°
Longitude
-107.91825°
Altitude
433.394 km
Speed
7.654 km/s
True Right ascension
20h 34m 12s
True Declination
0° 00' 00"
Sunlit
Object was in full shadow at epoch
Visualization orbit readout
Latitude
Unknown
Longitude
Unknown
Altitude
Unknown
Speed
Unknown
Apparent Right ascension
Unknown
Apparent Declination
Unknown
Sunlit
N/A
Visualization observer readout
Local Sidereal Time
21:28:46
Azimuth
Unknown
Elevation
Unknown
Doppler factor
Unknown
Orbital elements
Apogee altitude
437.495 km
Perigee altitude
433.267 km
Semi-major axis
6,813.518 km
Eccentricity
0.00031
Inclination
49.9919°
RAAN
308.5541°
Arg. of periapsis
326.6771°
True anomaly
33.41918°
Mean anomaly
33.3996°
Eccentric anomaly
33.40939°
Mean motion
3.8591 °/min
Orbital period
93.29 mins
BSTAR
0.00029912
Loading maneuver chart data...
Computing Atmospheric mass density...
Loading historical data...
Loading historical data...
Loading historical data...
Loading historical data...
Loading historical data...
Loading historical data...
Loading historical data...

Documentation

Showing up to 5 results
|